Total_Precipitation_Accumulation
0.86 0.87 0.84 0.85 0.79 0.63 0.53 0.50 0.51 0.43 0.35 0.24 0.11 0.04 0.02 0.00 0.00 0.00 0.00 0.00 0.00 0.00 0.00 0.00 0.01 0.01 0.02 0.02 0.03 0.04 0.10 0.20 0.53 0.84 0.71 0.58 0.53 0.60
0.67 0.69 0.72 0.78 0.83 0.77 0.69 0.59 0.54 0.51 0.44 0.33 0.18 0.08 0.05 0.03 0.01 0.00 0.00 0.00 0.00 0.00 0.00 0.00 0.01 0.01 0.01 0.01 0.01 0.01 0.01 0.05 0.26 0.73 0.84 0.72 0.71 0.81
0.60 0.59 0.66 0.72 0.87 0.92 0.86 0.73 0.65 0.58 0.50 0.39 0.20 0.12 0.09 0.06 0.04 0.02 0.00 0.00 0.00 0.00 0.00 0.00 0.01 0.01 0.00 0.00 0.00 0.00 0.00 0.01 0.04 0.18 0.35 0.44 0.61 0.83
0.55 0.51 0.54 0.61 0.74 0.86 0.95 0.85 0.75 0.65 0.60 0.53 0.30 0.17 0.12 0.09 0.05 0.02 0.01 0.00 0.00 0.00 0.00 0.00 0.01 0.01 0.01 0.00 0.00 0.00 0.00 0.00 0.01 0.03 0.11 0.22 0.30 0.43
0.42 0.41 0.45 0.48 0.55 0.65 0.77 0.83 0.77 0.67 0.64 0.64 0.46 0.26 0.16 0.11 0.07 0.03 0.01 0.01 0.00 0.00 0.00 0.00 0.00 0.01 0.01 0.00 0.00 0.00 0.00 0.00 0.01 0.01 0.03 0.07 0.13 0.17
0.23 0.24 0.28 0.31 0.35 0.44 0.54 0.63 0.71 0.72 0.71 0.69 0.57 0.38 0.25 0.16 0.09 0.05 0.04 0.02 0.01 0.00 0.00 0.00 0.00 0.00 0.01 0.00 0.00 0.00 0.00 0.00 0.00 0.00 0.00 0.01 0.02 0.05
0.23 0.21 0.18 0.19 0.22 0.28 0.37 0.51 0.60 0.64 0.66 0.66 0.59 0.44 0.31 0.20 0.11 0.07 0.04 0.04 0.02 0.00 0.00 0.00 0.00 0.00 0.00 0.00 0.00 0.00 0.00 0.00 0.00 0.00 0.00 0.00 0.00 0.01
0.20 0.22 0.25 0.22 0.16 0.14 0.17 0.27 0.38 0.46 0.51 0.54 0.54 0.44 0.31 0.23 0.17 0.11 0.05 0.02 0.01 0.01 0.00 0.00 0.00 0.00 0.00 0.00 0.00 0.00 0.00 0.00 0.00 0.00 0.00 0.00 0.00 0.00
0.17 0.18 0.23 0.24 0.28 0.24 0.19 0.18 0.19 0.26 0.39 0.48 0.48 0.45 0.47 0.35 0.23 0.14 0.08 0.04 0.02 0.02 0.01 0.00 0.00 0.00 0.00 0.00 0.00 0.00 0.00 0.00 0.00 0.00 0.00 0.00 0.00 0.00
0.26 0.22 0.22 0.22 0.24 0.33 0.38 0.32 0.26 0.28 0.41 0.31 0.30 0.47 0.51 0.42 0.30 0.21 0.16 0.12 0.07 0.03 0.01 0.00 0.00 0.00 0.00 0.00 0.00 0.00 0.00 0.00 0.00 0.00 0.00 0.00 0.00 0.00
0.29 0.26 0.25 0.26 0.33 0.38 0.38 0.36 0.33 0.34 0.55 0.58 0.55 0.51 0.46 0.38 0.32 0.29 0.21 0.13 0.08 0.05 0.03 0.01 0.00 0.00 0.00 0.00 0.00 0.00 0.00 0.00 0.00 0.00 0.00 0.00 0.00 0.00
0.36 0.29 0.35 0.32 0.33 0.29 0.24 0.27 0.28 0.35 0.40 0.41 0.41 0.38 0.32 0.28 0.26 0.24 0.24 0.19 0.12 0.08 0.04 0.03 0.01 0.01 0.00 0.00 0.00 0.00 0.00 0.00 0.00 0.00 0.00 0.00 0.00 0.00
0.38 0.38 0.36 0.38 0.29 0.22 0.20 0.25 0.32 0.41 0.41 0.41 0.40 0.33 0.23 0.20 0.19 0.19 0.19 0.19 0.17 0.14 0.09 0.06 0.04 0.03 0.01 0.01 0.00 0.00 0.00 0.00 0.00 0.00 0.00 0.00 0.00 0.00
0.36 0.32 0.28 0.28 0.20 0.17 0.17 0.22 0.26 0.29 0.29 0.32 0.34 0.33 0.27 0.22 0.20 0.18 0.18 0.16 0.15 0.14 0.14 0.11 0.08 0.05 0.04 0.03 0.02 0.02 0.01 0.01 0.00 0.00 0.00 0.00 0.00 0.00
0.29 0.25 0.21 0.19 0.15 0.12 0.12 0.16 0.17 0.22 0.27 0.30 0.29 0.31 0.33 0.31 0.27 0.23 0.17 0.14 0.14 0.13 0.13 0.13 0.13 0.12 0.10 0.07 0.05 0.04 0.04 0.04 0.03 0.02 0.01 0.01 0.00 0.00
0.17 0.10 0.09 0.10 0.10 0.12 0.14 0.13 0.17 0.30 0.38 0.39 0.39 0.36 0.37 0.35 0.32 0.29 0.26 0.24 0.21 0.21 0.20 0.20 0.22 0.23 0.23 0.20 0.15 0.12 0.10 0.09 0.07 0.06 0.04 0.03 0.02 0.02
0.30 0.18 0.11 0.10 0.10 0.12 0.15 0.20 0.29 0.37 0.43 0.40 0.38 0.36 0.35 0.37 0.35 0.33 0.32 0.31 0.29 0.29 0.33 0.37 0.36 0.34 0.32 0.30 0.29 0.25 0.21 0.18 0.16 0.15 0.13 0.09 0.07 0.05
0.30 0.31 0.30 0.30 0.28 0.25 0.23 0.22 0.23 0.30 0.36 0.42 0.40 0.37 0.32 0.31 0.31 0.30 0.30 0.29 0.27 0.28 0.30 0.33 0.38 0.40 0.39 0.34 0.30 0.27 0.27 0.26 0.25 0.24 0.20 0.14 0.10 0.10
0.30 0.33 0.35 0.35 0.31 0.27 0.22 0.19 0.17 0.19 0.26 0.33 0.39 0.42 0.42 0.39 0.33 0.28 0.24 0.22 0.21 0.21 0.21 0.20 0.23 0.26 0.29 0.29 0.28 0.26 0.24 0.24 0.25 0.23 0.21 0.18 0.14 0.14
0.22 0.25 0.25 0.24 0.22 0.20 0.16 0.14 0.13 0.12 0.13 0.17 0.23 0.31 0.41 0.49 0.47 0.42 0.40 0.35 0.31 0.27 0.23 0.19 0.16 0.15 0.17 0.18 0.18 0.18 0.21 0.21 0.21 0.19 0.17 0.16 0.14 0.14
0.08 0.09 0.09 0.10 0.11 0.12 0.10 0.09 0.10 0.11 0.12 0.12 0.13 0.16 0.23 0.31 0.41 0.47 0.50 0.55 0.51 0.46 0.40 0.32 0.27 0.29 0.23 0.20 0.17 0.11 0.10 0.14 0.14 0.12 0.11 0.11 0.12 0.11
0.03 0.03 0.04 0.04 0.05 0.05 0.05 0.04 0.04 0.06 0.07 0.08 0.10 0.11 0.13 0.16 0.22 0.30 0.35 0.38 0.40 0.42 0.45 0.46 0.44 0.42 0.36 0.30 0.24 0.18 0.14 0.14 0.17 0.18 0.14 0.12 0.10 0.09
0.03 0.03 0.03 0.04 0.04 0.06 0.10 0.12 0.08 0.06 0.07 0.08 0.09 0.09 0.10 0.11 0.14 0.18 0.21 0.25 0.28 0.32 0.35 0.37 0.36 0.34 0.32 0.30 0.30 0.29 0.25 0.21 0.19 0.19 0.19 0.23 0.21 0.14